Regional Weather Roundup
Issued by NWS Northern Indiana

Home | Current Version | Previous Version | Graphics & Text | Print | Product List | Glossary On
Versions: 1 2 3 4 5 6 7 8 9 10 11 12 13 14 15 16 17 18 19 20 21 22 23 24 25 26 27 28 29 30 31 32 33 34 35 36 37 38 39 40 41 42 43 44 45 46 47 48 49 50
000
ASUS43 KIWX 272310
RWRIWX

KIWX WEATHER ROUNDUP
NATIONAL WEATHER SERVICE NORTHERN INDIANA
700 PM EDT THU JUL 27 2017

NOTE: "FAIR" INDICATES FEW OR NO CLOUDS BELOW 12,000 FEET WITH NO
SIGNIFICANT WEATHER AND/OR OBSTRUCTIONS TO VISIBILITY.

* THESE STATIONS ARE NOT UNDER NWS QUALITY CONTROL. THEY ALSO MAY NOT
  REPORT WEATHER SUCH AS PRECIPITATION OR FOG.

INZ001>027-280000-
NORTHERN INDIANA

CITY           SKY/WX    TMP DP  RH WIND       PRES   REMARKS
GARY*          PTSUNNY   75  66  73 N12G24    29.93S
VALPARAISO     PTSUNNY   77  70  79 N10G18    29.92R
MICHIGAN CITY* MOSUNNY   73  68  83 N13G18    29.92S
LAPORTE*       SUNNY     76  69  80 N14       29.91S
KNOX*          MOSUNNY   79  70  73 N13       29.89S
SOUTH BEND     CLOUDY    80  70  71 N18       29.89S
ELKHART*       MOSUNNY   82  70  65 N6        29.88S
GOSHEN         CLOUDY    83  66  56 N5        29.87S
MONTICELLO*    CLOUDY    80  71  73 N7        29.87S
LOGANSPORT*    CLOUDY    79  72  78 N5        29.88S
ROCHESTER*     SUNNY     84  70  61 N6        29.88R
WARSAW*        CLOUDY    81  72  74 NW5       29.87S
AUBURN*        MOSUNNY   82  70  65 NE3       29.88S
FORT WAYNE     PTSUNNY   82  72  71 NE6       29.86F
HUNTINGTON*    CLOUDY    80  73  78 N3        29.86S
PERU/GRISSOM   CLOUDY    80  73  77 N7        29.86S
MARION*        MOSUNNY   81  72  74 NE5       29.87S

$$
INZ028>050-280000-
CENTRAL INDIANA

CITY           SKY/WX    TMP DP  RH WIND       PRES   REMARKS
LAFAYETTE      CLOUDY    82  73  74 N9        29.86S
KOKOMO*        CLOUDY    82  74  76 N8        29.87F
MUNCIE*        CLOUDY    80  73  79 SE3       29.87S
INDIANAPOLIS   CLOUDY    80  72  76 W9        29.87S

$$
MIZ043>046-050>051-056>058-064>065-071>073-077>080-280000-
SOUTHWEST LOWER MICHIGAN

CITY           SKY/WX    TMP DP  RH WIND       PRES   REMARKS
BATTLE CREEK   PTSUNNY   82  68  62 NE14      29.91S
BENTON HARBOR  SUNNY     76  66  71 VRB6      29.91S
COLDWATER*     MOSUNNY   82  64  53 N14       29.89R
HILLSDALE*     PTSUNNY   81  61  50 NE6       29.89S
HOLLAND        MOSUNNY   85  62  46 VRB7      29.91S
GRAND RAPIDS   MOSUNNY   82  64  54 NE12      29.92S
KALAMAZOO      MOSUNNY   82  65  56 NE8       29.90S
STURGIS*       PTSUNNY   82  67  60 N7        29.87S
THREE RIVERS*  FAIR      82  68  63 N5        29.89S

$$
OHZ001>008-015>018-024>025-280000-
NORTHWEST OHIO

CITY           SKY/WX    TMP DP  RH WIND       PRES   REMARKS
WAUSEON*       FAIR      84  68  58 E6        29.87S
DEFIANCE       CLOUDY    79  71  76 E6        29.87S
FINDLAY        SUNNY     81  68  64 NE10      29.87R
TOLEDO EXPRESS MOSUNNY   82  63  52 NE12      29.87R
TOLEDO METCALF SUNNY     82  65  56 E7        29.88S
LIMA           CLOUDY    75  72  90 CALM      29.87F

$$
AND FOR LAKE MICHIGAN COASTAL AND OPEN LAKE BUOY OBSERVATIONS

STATION/POSITION TEMP    WIND        PRES    VSBY  WAVE
                 AIR SEA DIR/SP/G                  HT/PER
                 (F)     (DEG/KT/KT) (MB)    (MI)  (FT/S)
CALUMET HARBOR    73     340/ 14/ 19 1013.2F
MICHIGAN CITY     74     350/ 20/ 23   N/A
BURNS HARBOR      73     360/ 16/ 20 1013.5S
SAINT JOSEPH      74      20/ 12/ 16 1012.9
SOUTH LAKE BUOY   70 71   10/ 19/ 23 1013.1F         4/ 5
4 MI NW BRIDGMAN  73 73   30/ 16/ 19 1012.5          4/ 5
MICHIGAN CITY     73 75   10/ 17/ 21   N/A           6/ 5

$$
&&



USA.gov is the U.S. government's official web portal to all federal, state and local government web resources and services.